Regional Weather Roundup
Issued by NWS Wakefield, VA

Home | Current Version | Previous Version | Text Only | Print | Product List | Glossary On
Versions: 1 2 3 4 5 6 7 8 9 10 11 12 13 14 15 16 17 18 19 20 21 22 23 24 25 26 27 28 29 30 31 32 33 34 35 36 37 38 39 40 41 42 43 44 45 46 47 48 49 50
000
ASUS41 KAKQ 061215
RWRAKQ

REGIONAL WEATHER ROUNDUP
NATIONAL WEATHER SERVICE WAKEFIELD VA
800 AM EDT MON JUL 06 2015

Note: "fair" indicates few or no clouds below 12,000 feet with no
significant weather and/or obstructions to visibility. * = Denotes
station may not report precipitation (e.g., rain,snow,etc.),
thunder or fog.

VAZ042-051-052>054-056-061300-
NORTHERN VIRGINIA

CITY           SKY/WX    TMP DP  RH WIND       PRES   REMARKS
WASH NATIONAL  CLOUDY    79  73  83 SE5       30.12R
DULLES         PTSUNNY   75  72  88 S6        30.12R
FORT BELVOIR   PTSUNNY   74  73  95 SE3       30.12R
QUANTICO       PTSUNNY   77  71  82 S10       30.12S
FREDERICKSBRG* CLOUDY    76  76  99 S3        30.11S
STAFFORD*      CLOUDY    73  71  92 S5        30.16R
WARRENTON      PTSUNNY   74  73  98 CALM      30.12R
CULPEPER*      CLOUDY    72  71  99 S3        30.13R FOG
MANASSAS*      CLOUDY    73  73 100 S5        30.12S
LEESBURG*      CLOUDY    73  73 100 S7        30.13S FOG
WINCHESTER     CLOUDY    73  72  94 SE5       30.13R
FRONT ROYAL*   CLOUDY    70  70 100 CALM      30.11S
LURAY*         CLOUDY    72  72 100 CALM      30.13R FOG
$$

VAZ048-049-060>072-079>083-061300-
CENTRAL AND SOUTH CENTRAL VIRGINIA

CITY           SKY/WX    TMP DP  RH WIND       PRES   REMARKS
RICHMOND       CLOUDY    73  70  90 SE7       30.12S
CHESTERFIELD*  NOT AVBL
PETERSBURG*    PTSUNNY   73  73 100 S3        30.13S
HANOVER        CLOUDY    72  71  97 S3        30.14R
TAPPAHANNOCK*  PTSUNNY   74  72  91 S5        30.13S
QUINTON*       NOT AVBL
CHARLOTTSVILLE CLOUDY    71  69  93 SE3       30.13R
GORDONSVILLE*  CLOUDY    72  70  94 CALM      30.12R
ORANGE*        CLOUDY    72  70  94 CALM      30.14R
LOUISA*        CLOUDY    72  70  94 CALM      30.13R
BUMPASS*       CLOUDY    71  70  98 CALM      30.13R
FARMVILLE*     CLOUDY    72  72 100 S6        30.11R
CREWE*         PTSUNNY   70  69  96 CALM      30.12R
FORT PICKETT*  PTSUNNY   71  70  98 S7        30.12S
CHASE CITY*    CLOUDY    73  73 100 CALM      30.12R
CLARKSVILLE*   CLOUDY    70  70 100 S3        30.11R
SOUTH HILL*    CLOUDY    71  70  99 S3        30.18R
LAWRENCEVILLE* NOT AVBL
EMPORIA*         N/A     72  70  94 SE6       30.14S
$$

VAZ088>098-061300-
SOUTHEAST VIRGINIA

CITY           SKY/WX    TMP DP  RH WIND       PRES   REMARKS
NORFOLK        MOSUNNY   77  72  84 S6        30.13S
VIRGINIA BEACH PTSUNNY   80  74  81 SE5       30.12S
NORFOLK NAVAL  PTSUNNY   76  72  87 SE8       30.14S
WEST POINT*    MOSUNNY   77  74  90 S3        30.14R
SALUDA*        FAIR      74  73  95 SE5       30.12R
NEWPORT NEWS   PTSUNNY   75  72  90 S7        30.13R
LANGLEY AFB    PTSUNNY   76  72  87 S7        30.12R
FORT EUSTIS    MOSUNNY   75 N/A N/A S8        30.11R
WILLIAMSBURG*  MOSUNNY   75  75 100 S6        30.14R
HR EXEC AP*    FAIR      73  72  94 SE5       30.15S
FRANKLIN*      SUNNY     73  71  95 SE3       30.14S
WAKEFIELD      MOSUNNY   74  71  91 CALM      30.13S
$$

VAZ020-022-025-037-045-061300-
WEST CENTRAL AND SOUTHWEST VIRGINIA

CITY           SKY/WX    TMP DP  RH WIND       PRES   REMARKS
STAUNTON*      CLOUDY    73  70  92 SE3       30.16R
WAYNESBORO*    CLOUDY    67  67 100 SE6       30.14R
HOT SPRINGS VA DRZL/FOG  64  64 100 S8        30.21R VSB<1/4
LYNCHBURG      CLOUDY    69  68  96 S6        30.13R
DANVILLE       CLOUDY    71  69  93 VRB3      30.12R
SOUTH BOSTON*  CLOUDY    70  69  95 MISG      30.12R
MARTINSVILLE   CLOUDY    71  71 100 CALM      30.14S FOG
ROANOKE        HVY RAIN  69  69 100 E6        30.14R VSB 3/4
BLACKSBURG     CLOUDY    67  67 100 CALM      30.18R
DUBLIN*        DRIZZLE   67  67 100 CALM      30.17R
MARION*        CLOUDY    67  65  96 W7        30.20R FOG
HILLSVILLE*    CLOUDY    65  65 100 CALM      30.17R
RICHLANDS*     CLOUDY    64  64 100 W7        30.19R FOG
WISE*          PTSUNNY   64  64 100 SW8       30.21R
ABINGDON*      CLOUDY    68  68 100 W6        30.18R FOG
$$

MDZ021>025-VAZ099-100-061300-
SOUTHERN MARYLAND AND THE DELMARVA PENINSULA

CITY           SKY/WX    TMP DP  RH WIND       PRES   REMARKS
PATUXENT RIVER PTSUNNY   77  73  87 S6        30.11S
BAY BRIDGE APT   N/A     73  72  94 SE6       30.12S
LEONARDTOWN    PTSUNNY   75  72  88 S3        30.14R
DOVER          CLOUDY    76  76 100 SE7       30.11S
GEORGETOWN     PTSUNNY   75  72  90 S7        30.13R
EASTON         MOSUNNY   73  73 100 S3        30.16S
CAMBRIDGE      PTSUNNY   77  72  83 S5        30.11F
SALISBURY      PTSUNNY   73  71  93 SE5       30.12S
OCEAN CITY     PTSUNNY   77  74  90 VRB5      30.13R
WALLOPS ISLAND CLOUDY    76  75  97 SE8       30.13R
ACCOMACK*      PTSUNNY   73  73 100 SE5       30.13R
$$

NCZ012>017-030>032-061300-
NORTH CENTRAL AND EASTERN NORTH CAROLINA

CITY           SKY/WX    TMP DP  RH WIND       PRES   REMARKS
ROANOKE RAPIDS CLOUDY    72  72 100 S5        30.13R FOG
RALEIGH        PTSUNNY   74  71  91 S6        30.12S
ELIZABETH CITY MOSUNNY   78  74  87 S6        30.14S
AHOSKIE*       CLOUDY   N/A N/A N/A S6        30.14R
EDENTON*       MOSUNNY   77  73  88 S7        30.14R
CURRITUCK*     SUNNY     77  73  87 CALM      30.14S
KILL DEVIL HLS SUNNY     80  76  85 SW8       30.14R
MANTEO         SUNNY     78  75  89 SW7       30.15S
CAPE HATTERAS  MOSUNNY   78  75  90 SW6       30.17R
TARBORO*         N/A     76  73  88 S6        30.14R
GOLDSBORO      MOSUNNY   77  75  93 S6        30.11S
WASHINGTON     MOSUNNY   78  74  89 CALM      30.14S
GREENVILLE     CLOUDY    77  75  94 S6        30.15R FOG
NEW BERN       MOSUNNY   77  73  87 S6        30.15R
WILMINGTON     SUNNY     79  73  82 SW3       30.13S
$$

VAZ048-061300-
ELSEWHERE

CITY           SKY/WX    TMP DP  RH WIND       PRES   REMARKS
HARRISBURG PA  CLOUDY    71  68  90 S3        30.13R FOG
BALTIMORE      CLOUDY    74  71  91 SE3       30.12R
ANNAPOLIS      CLOUDY    75  71  87 SE8       30.12R
ANDREWS AFB    CLOUDY    74  74 100 SE5       30.11S
PHILADELPHIA   CLOUDY    74  69  85 E6        30.14S
HENDERSON NC   CLOUDY    70  68  93 S7        30.12S FOG
GREENSBORO     CLOUDY    71  68  90 SW8       30.12R
ROCKY MOUNT    MOSUNNY   76  74  93 S5        30.12S FOG
$$

VAZ100-061300-
MARINE

STATION/POSITION TIME  TEMP    WIND        PRES    WAVE   SWELL
                       AIR SEA DIR/SP/G            HT/PER HT/PER
                 (UTC) (F)     (DEG/KT/KT) (MB)    (FT/S) (FT/S)
BRANDYWINE LGT   1100   74 74  150/  8/  9 1020.4R
CAPE MAY NJ      1100   74 77  110/  5/  7 1019.7F
LEWES DE         1100   74 74  160/  3/  4 1019.7F
15NM E FENWICK I 1150   75 74              1020.1R   3/ 6
OCEAN-CITY-INLET 1100   75 75  150/  3/  5 1019.7S
WACHAPREAGUE VA  1100   74 81  130/  3/  4 1020.0R
GOOSES REEF MD   1200   76 77  150/  8/ 10 1020.7R
COVE POINT MD    1100   75     140/  9/ 11 1020.2R
SOLOMONS ISLAND  1100      80                N/A
BISHOPS HEAD MD  1100   76     150/  9/ 11 1019.3S
PINEY POINT MD   1100          200/  6/  7   N/A
CAMBRIDGE MD     1100   73 80  130/  2/  4 1019.6R
LEWISETTA VA     1100   75 80  220/  3/  5 1019.4R
RAPPAHANNOCK LGT 1100          130/  9/ 10 1020.2R
STINGRAY PT      1200   78 80  200/ 10/ 14 1020.1R   1/ 3
YORK RVR RNG VA  1100   77     190/ 12/ 14 1019.3R
YORKTOWN VA      1100   74 80  180/  6/  8 1019.5R
JAMESTOWN VA     1200   74 82  150/  8/ 10   N/A
DOMINION TERM VA 1100   75     150/  9/ 10 1019.8R
KIPTOPEKE VA     1100      82  160/  5/  6   N/A
CHES BAY BRIDGE  1100   76 78  130/  6/  8 1019.7R
CAPE HENRY VA    1100   75     150/  5/  5   N/A
CHESAPEAKE LGHT  1100   76     100/ 12/ 12 1020.7R
WILLOUBY STN VA  1100   75     130/  9/ 10 1020.8R
CAPE HENRY BUOY  1128      78                N/A     2/13   2/13
1ST LANDING BUOY 1200      77              1020.0R   1/ 3
CAPE CHARLES BUO 1126      77                N/A     2/13   2/13
OFFSHORE WE BUOY 1111      77                N/A     3/ 9   2/ 9
64NM E OF VA BCH 1150   78 77  210/  8/ 10 1020.2R   3/ 9   2/ 9
DUCK PIER NC     1100   78 78  240/ 10/ 12   N/A
44100 DUCK FRF   1124      78                N/A     2/13   2/13
44056 DUCK FRF   1111      78                N/A     2/ 8
OREGON INLET NC  1100   80 81  230/ 12/ 13 1020.5R
HATTERAS NC      1100   78 79  230/  5/  7 1020.5S
DIAMOND SHLS NC  1150   80 81  220/  8/ 10 1021.3R   3/ 5   2/ 5
CAPE LOOKOUT NC  1200   80     240/ 10/ 13 1020.7R
$$


USA.gov is the U.S. government's official web portal to all federal, state and local government web resources and services.